Погода в Юрьевеце

Погода в Юрьевеце : погода сейчас, прогноз погоды и архив. Всё, что Вы хотите узнать о погоде в Юрьевеце!

Хотите узнать прогноз погоды в Юрьевеце? Тогда Вам сюда: Погода в Юрьевеце

Поиск расширенной информации на нашем сайте:

Другие новости

Новости СМИ2

Главная страница сайта

Новости сайта

02.10.2013

Напоминаем, что на нашем новом сайте вы можете получить высокодетализированные прогнозы погоды по пунктам России, СНГ и мира (включающие важные для авиации метеовеличины, такие как направление и скорость ветра, видимость, явления погоды, количество и форма облачности, нижняя и верхняя граница облачности), а также ознакомиться с разнообразными материалами по авиационной метеорологии и подборкой полезных ссылок на эту тему.

Сайт Метеоцентр.Азия посвящён разработке технологий оптимизации авиаметеорологического обслуживания, включая проектирование и перспективное создание нескольких автоматизированных авиаметеорологических систем:
- система выпуска высокодетальных прогностических карт явлений погоды для нижнего воздушного пространства по России и ближнему зарубежью;
- система верификации прогнозов TAF (выпускаемых синоптиками официальных АМСГ РФ и ближнего зарубежья) и AUTOTAF (выпускаемых сайтом Метеоцентр.Азия) - выявление ошибок, онлайн-сопоставление с фактической погодой METAR, автоматическое внесение коррективов в прогнозы при резком отклонении фактической погоды от прогноза, подсчёт оправдываемости прогнозов по элементам и в целом;
- система обработки, анализа и отображения авиаметеорологической информации для применения провайдерами метеорологической информации.

Рекомендуем: http://krovat-divan.ru/ недорогие экологичные диван кровати.

Погода в Юрьевеце - сегодня

Время (UTC), дата Ветер
(°,м/с) 
Видим.   Явления Облачность Т
(°С)
Тd
(°С)
f(%) Тe
(°С)
Pmin
(гПа)
dP
(гПа)
Po
(мм)
O2
(г/м3)
Тmin Tmax R s Состояние
почвы
03 17.02.17 160 (Ю) 10 км    ясно 
-13.5 -16.1 81 -18  1020.3  -2.3  752  320  -13.7      67  равномерный
сухой снег
100% 
06 17.02.17 160 (Ю) 4-11{11}  10 км    9/9 300 м 
[Sc]
-11.9 -15.1 77 -16  1017.2  -2.9  750  317           
09 17.02.17 160 (Ю) 4{11}  10 км    8/0 средняя, верхняя 
[Ac As|Ci fib]
-7.1 -12.4 66 -11  1014.2  -2.6  748  311           
12 17.02.17 180 (Ю) 3{10}  10 км    10/0 средняя 
[Ac und]
-5.1 -9.6 71 -7  1011.6  -2.4  746  307           
15 17.02.17 180 (Ю) 10 км    10/0 средняя 
[Ac und]
-5.9 -9.2 77 -7  1010.7  -0.9  745  308    -4.6       
18 17.02.17 170 (Ю) 4000 м  слаб. снег  10/10 300 м 
[Frnb|Ns]
-6.6 -8.3 88 -9  1009.3  -1.4  744  308           
21 17.02.17 180 (Ю) 10 км  {снег}  10/10 300 м 
[Sc]
-6 -7.8 87 -7  1007.6  -1.6  743  307           
00 18.02.17 180 (Ю) 10 км  {снег}  10/10 300 м 
[Sc]
-5.7 -6.7 93 -8  1006.1  -1.5  742  306           
03 18.02.17 180 (Ю) 4000 м  слаб. снег  10/10 300 м 
[Frnb|Ns]
-4.9 -6.2 91 -6  1004.6  -1.4  741  305  -6.7    67  равномерный
сухой снег
100% 
06 18.02.17 220 (ЮЗ) 4000 м  слаб. снег  10/10 300 м 
[Frnb|Ns]
-3.5 -5.1 89 -5  1003.9  -0.5  740  303           
09 18.02.17 240 (ЮЗ) 10 км  {снег}  10/10 300 м 
[Sc]
-1.2 -3.1 87 -2  1003  -0.7  740  300           
12 18.02.17 250 (З) 4000 м  слаб. снег  10/0 средняя 
[As op]
+0.3 -1.5 88 1002.3  -0.7  739  298           
15 18.02.17 260 (З) 10 км  {снег}  10/10 300 м 
[Sc]
+0.4 -2.8 79 -1  1001.9  -0.3  739  298    +0.7  0.5     
18 18.02.17 260 (З) 10 км  {снег}  10/10 300 м 
[Sc]
+0.1 -4.4 72 -2  1000.7  -1.2  738  298           
21 18.02.17 260 (З) 4000 м  слаб. снег  10/10 300 м 
[Frnb|Ns]
-0.9 -3.3 84 -3  999.9  -0.9  738  299           
00 19.02.17 280 (З) 8-12{12}  4000 м  слаб. снег  10/10 300 м 
[Frnb|Ns]
-0.9 -3.8 81 -5  1000.8  0.9  738  299           
03 19.02.17 290 (З) 7-10{15}  10 км  позёмок{снег}  8/8 300 м 
[Sc]
-2.8 -7 73 -7  1004.9  0.9  741  302  -3.3    67  равномерный
сухой снег
100% 
06 19.02.17 280 (З) 5{12}  10 км  {снег}  1/1 300 м 
[Sc]
-4.9 -11.9 58 -9  1009.2  4.1  744  306  -5.4         
09 19.02.17 280 (З) 10 км    8/0 средняя 
[Ac und]
-2.7 -11.2 52 -5  1010.5  1.4  745  304           
12 19.02.17 200 (Ю) 10 км    10/0 средняя 
[Ac und]
-1.3 -10.9 48 -2  1009.1  -1.3  744  302           
15 19.02.17 160 (Ю) 4000 м  слаб. снег  10/10 300 м 
[Sc]
-3.3 -4.8 89 -6  1005.8  -3.4  742  303    -1.2  0.3     
18 19.02.17 190 (Ю) 4000 м  слаб. снег  10/10 300 м 
[Sc]
-0.7 -1.6 94 -2  1001.4  -3.4  739  299           
21 19.02.17 220 (ЮЗ) 3{10}  10 км  в посл. час снег  10/10 300 м 
[Sc]
+0.1 -0.9 93 -2  998.7  -2.6  737  297           
00 20.02.17 230 (ЮЗ) 3{11}  10 км  {снег}  10/10 300 м 
[Sc]
+0.7 -1.1 88 -1  996.8  -1.8  735  296           
03 20.02.17 230 (ЮЗ) 3{10}  10 км  в посл. час снег  10/10 300 м 
[Sc]
+0.7 -0.6 91 -1  995.8  -1  735  295  -3.3    69  равномерный
мокрый или
старый снег
100% 
Время (UTC), дата Ветер
(°,м/с) 
Видим.   Явления Облачность Т
(°С)
Тd
(°С)
f(%) Тe
(°С)
Pmin
(гПа)
dP
(гПа)
Po
(мм)
O2
(г/м3)
Тmin Tmax R s Состояние
почвы

Для получения пояснительной информации подведите курсор к названию столбца.

ПОГОДА в Юрьевеце - архив

Всё, что Вы хотите узнать о погоде в Юрьевеце - удобно и подробно!

Выберите нужную дату (начиная с 1 января 2015* года) и нажмите кнопку "Найти".
Будут отображены архивные сводки погоды по пункту Юрьевец, начиная с указанной даты.


Отображать данные в формате CSV (для использования в таблицах Excel)


Внимание! Наш архив погоды предназначен исключительно для личного некоммерческого использования в познавательных целях. Если Вам необходимы официальные справки о состоянии погоды (для производственных, юридических, коммерческих и т.п. целей), обращайтесь в органы Росгидромета.

*Примечание: данная дата относится к архиву по метеостанциям СССР (Россия, СНГ, Балтия).
Архив по метеостанциям Зарубежной Европы и Азии (кроме Китая) хранится 10 дней, по другим регионам земного шара (Китай, Африка, Америка, Австралия, Океания) - 1 день.

Юрьевец - район местоположения метеостанции


Название, широта, долгота, высота метеостанции:
Юрьевец 57.3°ш. 43.1°д. 132 м над ур. моря [Российская Федерация]

Дополнительная информация

В oтличие oт бoльшинства пoгoдных сайтoв мы публикуем пoдрoбную метеoинфoрмацию в детальнoм прoфессиoнальнoм фoрмате.

Характеристики температуры и влажнoсти вoздуха измеряются на высoте 2 м в тени вдали oт зданий и деревьев.
Скoрoсть ветра измеряется на высoте 10 м (на урoвне рoста челoвека скoрoсть ветра ниже в 1.5-2 раза). Если метеoстанция нахoдится в гoрoде или в лесу, тo скoрoсть ветра занижена на 2-4 м/с пo сравнению с oткрытым местoм. Скoрoсть ветра над акватoриями крупных рек и oзёр, а также на вершинах хoлмoв на 2-5 м/с выше, чем в oбычных услoвиях.
Атмoсфернoе давление в разных тoчках местнoсти мoжет значительнo oтличаться oт давления на метеoстанции, в зависимoсти oт услoвий рельефа (при пoдъёме на 10 м давление пoнижается примернo на 1 мм рт.ст.).